Вернуться в каталог

STARLINK-2334

АктивенСвязьVLEO
NORAD 47792·PAYLOAD·🇺🇸 United States

Запущен Mar 11, 2021 с Cape Canaveral Space Force Station

Loading…

Ближайшие Пролёты (ближайшие 24 часа)

TLE

СвежийSource: CelesTrak SupGP

Эпоха: Sep 15, 2026, 00:55 UTC

1 47792C 21018F   26258.03868056  .00010927  00000+0  35126-3 0  2586
2 47792  53.1577  77.9587 0001024  91.9819 163.3334 15.31708889    10

Отслеживайте STARLINK-2334 в реальном времени с AllMySat

Download on the App Store